Location: Starry Hill Observatory
(46.8582°N, 122.3590°W)
Time: 06:20:43
(UTC-08:00)

ISS - Visible Passes

Search period start: 07 December 2016 00:00
Search period end: 17 December 2016 00:00
Orbit: 401 x 410 km, 51.6° (Epoch: 07 December)

Date Brightness Start Highest point End Pass type
(mag) Time Alt. Az. Time Alt. Az. Time Alt. Az.
07 Dec -2.8 17:35:24 10° W 17:38:38 51° NNW 17:40:27 22° NE visible
07 Dec -0.3 19:12:29 10° WNW 19:13:08 14° WNW 19:13:08 14° WNW visible
08 Dec -2.2 18:20:20 10° WNW 18:23:11 34° NNW 18:23:11 34° NNW visible
09 Dec -2.4 17:28:08 10° W 17:31:15 38° N 17:33:14 19° NE visible
09 Dec -0.5 19:05:04 10° WNW 19:05:54 16° NW 19:05:54 16° NW visible
10 Dec -2.3 18:12:59 10° WNW 18:15:57 35° N 18:15:57 35° N visible
11 Dec -2.3 17:20:49 10° WNW 17:23:53 34° N 17:26:01 16° ENE visible
11 Dec -0.9 18:57:31 10° WNW 18:58:42 20° NW 18:58:42 20° NW visible
12 Dec -2.8 18:05:28 10° WNW 18:08:38 42° NNE 18:08:49 42° NNE visible
13 Dec -2.5 17:13:21 10° WNW 17:16:27 36° N 17:18:59 14° ENE visible
13 Dec -1.5 18:49:53 10° WNW 18:51:40 29° WNW 18:51:40 29° WNW visible
14 Dec -3.3 17:57:49 10° WNW 18:01:06 62° NNE 18:01:56 43° E visible
14 Dec 0.3 19:34:34 10° W 19:34:37 10° W 19:34:37 10° W visible
15 Dec -2.9 17:05:44 10° WNW 17:08:56 46° NNE 17:12:08 10° E visible
15 Dec -2.1 18:42:17 10° WNW 18:45:01 41° WSW 18:45:01 41° WSW visible
16 Dec -3.2 17:50:06 10° WNW 17:53:24 75° SSW 17:55:35 20° SE visible
16 Dec 0.1 19:27:47 10° WSW 19:28:18 11° WSW 19:28:18 11° WSW visible
